Regional Weather Roundup
Issued by NWS

Home | Current Version | Previous Version | Text Only | Print | Product List | Glossary On
Versions: 1 2 3 4 5 6 7 8 9 10 11 12 13 14 15 16 17 18 19 20 21 22 23 24 25 26 27 28 29 30 31 32 33 34 35 36 37 38 39 40 41 42 43 44 45 46 47 48 49 50
000
ASUS46 KLOX 262212
RWRCA

SOUTHERN CALIFORNIA WEATHER ROUNDUP
NATIONAL WEATHER SERVICE OXNARD CALIFORNIA
300 PM PDT SUN APR 26 2015

NOTE: "FAIR" INDICATES FEW OR NO CLOUDS BELOW 12,000 FEET WITH NO
SIGNIFICANT WEATHER AND/OR OBSTRUCTIONS TO VISIBILITY.

  -  STATIONS PRECEEDED BY AN ASTERISK (*) ARE NOT NWS OR FAA
     STATIONS AND ARE NOT SUBJECT TO NWS AND FAA QUALITY CONTROL.

CAZ041-042-087-262300-
LA AND ORANGE COUNTY COASTAL AREAS


CITY           SKY/WX    TMP DP  RH WIND       PRES   REMARKS
L.A. DOWNTOWN  SUNNY     72  42  34 W9        29.94F
L.A. AIRPORT   MOSUNNY   70  45  40 W22       29.94F
LONG BEACH     SUNNY     69  52  54 S10       29.95F

CITY           SKY/WX    TMP DP  RH WIND       PRES   REMARKS
AVALON           N/A     64 N/A N/A MISG        N/A
FULLERTON      SUNNY     74  46  36 SW9       29.94F
*GETTY CENTER    N/A    N/A N/A N/A SW13G20     N/A
HAWTHORNE      MOSUNNY   71  45  39 SW13      29.96F
*LOS ALAMITOS  PTSUNNY   71  48  43 SW14      29.96F
*REDONDO BEACH   N/A     68  52  55 CALM      29.96F
SANTA ANA      PTSUNNY   70  47  43 W8        29.96F
STA MONICA APT MOSUNNY   71  43  36 W12G23    29.95F
TORRANCE       MOSUNNY   70  46  43 NW12      29.96F
*UCLA            N/A     72  37  28 SW8G20    29.90F

$$

CAZ547-548-048-262300-
LA COUNTY VALLEYS AND INLAND EMPIRE


CITY           SKY/WX    TMP DP  RH WIND       PRES   REMARKS
BURBANK        SUNNY     77  38  24 S9G18     29.92F
VAN NUYS       SUNNY     79  29  16 NW14G23   29.93F

CITY           SKY/WX    TMP DP  RH WIND       PRES   REMARKS
CORONA AIRPORT CLEAR     75  48  38 W12       29.94F
*CHATSWORTH      N/A     76  32  20 N10       29.94F
CHINO          PTSUNNY   77  47  34 W14G22    29.94F
MARCH AFB      SUNNY     74  40  29 NW16G22   29.92F
*NORTHRIDGE      N/A     79  23  12 NW7         N/A
ONTARIO        PTSUNNY   74  45  35 W12G22    29.94F
*PASADENA        N/A     75  46  35 E6          N/A
POMONA         SUNNY     72  46  40 W14       29.97F
RIVERSIDE      SUNNY     75  44  33 W12G22    29.93F
SAN BERNARDINO MOSUNNY   73  41  31 W17       29.92F
*WHITEMAN AP   NOT AVBL
*WOODLAND HILL   N/A     77  23  13 NW15G24     N/A

$$

CAZ054-055-262300-
LA AND SAN BERNARDINO COUNTY MOUNTAINS


CITY           SKY/WX    TMP DP  RH WIND       PRES   REMARKS
*BIG BEAR AIRP CLEAR     52  18  25 NW12G26   30.08S
*CHILAO          N/A     58  31  35 N10         N/A
MT WILSON NWS    N/A     59  41  51 W3          N/A
SANDBERG       MOSUNNY   58  36  43 N23G31    30.08F
*WARM SPRINGS    N/A     63  33  33 NW9G29      N/A

$$

CAZ028-029-059-060-099-262300-
ANTELOPE VALLEY AND SURROUNDING AREAS


CITY           SKY/WX    TMP DP  RH WIND       PRES   REMARKS
LANCASTER      SUNNY     71  34  25 W18G29    29.99F
PALMDALE       SUNNY     71  34  25 NW23      30.00F

CITY           SKY/WX    TMP DP  RH WIND       PRES   REMARKS
29 PALMS       MOSUNNY   74  21  13 N23G31    29.97F
BARSTOW/DAGGET SUNNY     78  15   9 NW12      29.92F
BISHOP         SUNNY     72  19  13 N22G35    30.02S
CHINA LAKE     MOSUNNY   75  23  14 W7        29.92F
EDWARDS AFB    PTSUNNY   73  23  15 SW8       29.95F
MOJAVE         FAIR      68  37  32 W20       30.00F
NEEDLES        SUNNY     80  21  11 NE24G30   29.84F
VICTORVILLE    SUNNY     72  21  15 N7G18     29.98F

$$

CAZ039-040-262300-
VENTURA AND SANTA BARBARA COUNTY COAST


CITY           SKY/WX    TMP DP  RH WIND       PRES   REMARKS
CAMARILLO      SUNNY     73  45  36 W21       29.96F
NWS OXNARD       N/A     70  47  44 CALM      29.96F
OXNARD AIRPORT MOSUNNY   65  49  56 W10       29.98F
*POINT MUGU    MOSUNNY   68  51  54 W21G26    29.98F
SBA APT/GOLETA SUNNY     70  46  42 W20G28    29.95F
*SANTA BARBARA   N/A     81  44  26 N3        30.01F
*VENTURA         N/A     75  44  32 SW8       29.99F

$$

CAZ044-045-262300-
VENTURA COUNTY VALLEYS


CITY           SKY/WX    TMP DP  RH WIND       PRES   REMARKS
*SIMI VALLEY     N/A     74  44  34 SW8       29.92F
*OJAI            N/A     77  44  29 CALM      29.88F
*FILLMORE        N/A     78  47  32 CALM      29.84F

$$

CAZ053-262300-
VENTURA COUNTY MOUNTAINS


CITY           SKY/WX    TMP DP  RH WIND       PRES   REMARKS
*LOCKWOOD VLY    N/A     52  25  35 MISG        N/A
*ROSE VALLEY     N/A     68  32  26 MISG        N/A

$$

CAZ034-035-036-262300-
CENTRAL COAST AND SANTA YNEZ VALLEY


CITY           SKY/WX    TMP DP  RH WIND       PRES   REMARKS
SAN LUIS OBISP SUNNY     66  48  52 NW24      30.04F
SANTA MARIA    MOSUNNY   65  46  50 NW24G32   30.04F

CITY           SKY/WX    TMP DP  RH WIND       PRES   REMARKS
*CAL POLY SLO    N/A     66  48  52 SW7G13      N/A
*LOMPOC        SUNNY     64  45  48 W18G24    30.07F
*PISMO BEACH     N/A     62  52  70 W8        30.03F
*SANTA YNEZ    FAIR      70  41  35 W17G24    29.99F

$$

CAZ037-038-051-262300-
SAN LUIS OBISPO COUNTY INTERIOR AND CUYAMA VALLEY


CITY           SKY/WX    TMP DP  RH WIND       PRES   REMARKS
*CUYAMA          N/A     65  35  33 NE15      30.04F
PASO ROBLES    SUNNY     75  36  24 VRB5      30.04F

$$

CAZ032-033-061-262300-
SOUTHERN DESERTS


CITY           SKY/WX    TMP DP  RH WIND       PRES   REMARKS
BLYTHE         SUNNY     82  24  12 N13G26    29.82F
IMPERIAL       SUNNY     84  31  14 NW12G20   29.82F
PALM SPRINGS   SUNNY     81  32  17 S6        29.86F
THERMAL        SUNNY     85  31  14 NW13G20   29.81F

$$

ELSEWHERE ACROSS THE WESTERN UNITED STATES AND MEXICO


CITY           SKY/WX    TMP DP  RH WIND       PRES   REMARKS
DENVER, CO     LGT RAIN  43  43 100 E14       29.90R FOG
GRAND CANYON,  PTSUNNY   51  31  46 NW9G22    29.88F
HONOLULU, HI   MOSUNNY   77  70  78 SW10      30.00F
KAHULUI, MAUI  PTSUNNY   81  70  69 N10       30.01F
LAKE TAHOE, CA SUNNY     54  28  36 N9        30.19R
LAS VEGAS, NV  MOSUNNY   73  17  12 N20G30    29.87F
MAMMOTH LAKES, FAIR      57  19  23 NW15G21   30.17S
MEXICO CITY, M MOSUNNY   81  39  22 S15       30.12F
PHOENIX, AZ    MOSUNNY   73  42  32 VRB3      29.78F
PORTLAND, OR   CLOUDY    59  41  51 S6        30.25R
RENO, NV       PTSUNNY   60  24  25 NE7       30.17F
SALT LAKE CITY CLOUDY    48  32  53 W14       30.03R
SAN DIEGO, CA  PTSUNNY   69  49  48 NW9       29.98F
SAN FRANCISCO, MOSUNNY   65  48  54 W23       30.14S
SAN JOSE, CA   MOSUNNY   71  38  29 NW10      30.10F
SEATTLE, WA    PTSUNNY   59  41  51 SW9       30.23F
TIJUANA, MEX   PTSUNNY   68  48  49 W10       29.99F

$$

STATION/POSITION TIME  TEMP    WIND        PRES    VSBY  WAVE
                       AIR SEA DIR/SP/G                  HT/PER
                 (UTC) (F)     (DEG/KT/KT) (MB)    (MI)  (FT/S)
POINT ARGUELLO B NOT AVBL
WEST SANTA BARBA 2200   55 53  320/ 23/ 27 1016.8F         9/ 8
POINT CONCEPTION NOT AVBL
EAST SANTA BARBA NOT AVBL
SANTA MONICA BAY 2200   60 59  280/ 12/ 14 1015.1F         5/ 6


USA.gov is the U.S. government's official web portal to all federal, state and local government web resources and services.